Time,TemperatureF,DewpointF,PressureIn,WindDirection,WindDirectionDegrees,WindSpeedMPH,WindSpeedGustMPH,Humidity,HourlyPrecipIn,Conditions,Clouds,dailyrainin,SoftwareType,DateUTC
2013-03-04 00:01:00,30.0,25.0,29.52,WSW,252,0.0,3.0,83,0.00,,,0.12,,2013-03-04 05:01:00,
2013-03-04 00:11:00,30.0,25.0,29.52,WSW,252,0.0,3.0,83,0.00,,,0.12,,2013-03-04 05:11:00,
2013-03-04 00:22:00,30.0,25.0,29.52,WSW,258,3.0,7.0,82,0.00,,,0.12,,2013-03-04 05:22:00,
2013-03-04 00:32:00,30.0,25.0,29.52,SSW,201,1.0,6.0,82,0.00,,,0.12,,2013-03-04 05:32:00,
2013-03-04 00:42:00,29.0,25.0,29.52,WSW,250,327.0,327.0,83,-99.99,,,-99.99,,2013-03-04 05:42:00,
2013-03-04 00:52:00,29.0,25.0,29.52,WSW,250,327.0,327.0,83,-99.99,,,-99.99,,2013-03-04 05:52:00,
2013-03-04 01:02:00,29.0,25.0,29.53,NW,304,1.0,4.0,83,0.00,,,0.12,,2013-03-04 06:02:00,
2013-03-04 01:11:00,29.0,25.0,29.53,NW,304,1.0,4.0,83,0.00,,,0.12,,2013-03-04 06:11:00,
2013-03-04 01:22:00,29.0,24.0,29.53,WSW,255,1.0,5.0,82,0.00,,,0.12,,2013-03-04 06:22:00,
2013-03-04 01:32:00,29.0,25.0,29.52,South,177,0.0,7.0,83,0.00,,,0.12,,2013-03-04 06:32:00,
2013-03-04 01:42:00,29.0,25.0,29.52,South,177,0.0,7.0,83,0.00,,,0.12,,2013-03-04 06:42:00,
2013-03-04 01:51:00,29.0,25.0,29.52,WSW,252,2.0,4.0,83,0.00,,,0.12,,2013-03-04 06:51:00,
2013-03-04 02:02:00,29.0,25.0,29.52,SW,220,1.0,5.0,83,0.00,,,0.12,,2013-03-04 07:02:00,
2013-03-04 02:11:00,29.0,25.0,29.52,SW,220,1.0,5.0,83,0.00,,,0.12,,2013-03-04 07:11:00,
2013-03-04 02:22:00,29.0,24.0,29.52,WSW,247,1.0,9.0,82,0.00,,,0.12,,2013-03-04 07:22:00,
2013-03-04 02:32:00,28.0,23.0,29.52,SW,228,1.0,4.0,82,0.00,,,0.12,,2013-03-04 07:32:00,
2013-03-04 02:42:00,28.0,23.0,29.52,SW,228,1.0,4.0,82,0.00,,,0.12,,2013-03-04 07:42:00,
2013-03-04 02:52:00,28.0,23.0,29.52,West,265,1.0,4.0,82,0.00,,,0.12,,2013-03-04 07:52:00,
2013-03-04 03:02:00,28.0,23.0,29.51,SW,232,327.0,327.0,82,-99.99,,,-99.99,,2013-03-04 08:02:00,
2013-03-04 03:11:00,28.0,23.0,29.51,NE,44,1.0,6.0,81,0.00,,,0.12,,2013-03-04 08:11:00,
2013-03-04 03:22:00,28.0,23.0,29.51,NE,44,1.0,6.0,81,0.00,,,0.12,,2013-03-04 08:22:00,
2013-03-04 03:32:00,27.0,22.0,29.51,West,277,3.0,7.0,81,0.00,,,0.12,,2013-03-04 08:32:00,
2013-03-04 03:42:00,27.0,22.0,29.51,West,277,3.0,7.0,81,0.00,,,0.12,,2013-03-04 08:42:00,
2013-03-04 03:52:00,27.0,22.0,29.51,WNW,298,327.0,327.0,82,-99.99,,,-99.99,,2013-03-04 08:52:00,
2013-03-04 04:02:00,27.0,22.0,29.52,SW,217,2.0,6.0,82,0.00,,,0.12,,2013-03-04 09:02:00,
2013-03-04 04:11:00,27.0,22.0,29.52,SW,217,2.0,6.0,82,0.00,,,0.12,,2013-03-04 09:11:00,
2013-03-04 04:22:00,27.0,22.0,29.52,NW,317,1.0,7.0,82,0.00,,,0.12,,2013-03-04 09:22:00,
2013-03-04 04:32:00,27.0,22.0,29.52,NW,319,2.0,7.0,81,0.00,,,0.12,,2013-03-04 09:32:00,
2013-03-04 04:42:00,27.0,22.0,29.52,NW,319,2.0,7.0,81,0.00,,,0.12,,2013-03-04 09:42:00,
2013-03-04 04:52:00,27.0,22.0,29.52,SSW,207,2.0,5.0,81,0.00,,,0.12,,2013-03-04 09:52:00,
2013-03-04 05:01:00,26.0,21.0,29.52,WNW,282,1.0,5.0,82,0.00,,,0.12,,2013-03-04 10:01:00,
2013-03-04 05:11:00,26.0,21.0,29.52,WNW,282,1.0,5.0,82,0.00,,,0.12,,2013-03-04 10:11:00,
2013-03-04 05:22:00,26.0,21.0,29.52,WNW,282,3.0,6.0,82,0.00,,,0.12,,2013-03-04 10:22:00,
2013-03-04 05:32:00,26.0,21.0,29.51,WSW,243,327.0,327.0,82,-99.99,,,-99.99,,2013-03-04 10:32:00,
2013-03-04 05:42:00,26.0,21.0,29.52,West,261,327.0,327.0,82,-99.99,,,-99.99,,2013-03-04 10:42:00,
2013-03-04 05:52:00,26.0,21.0,29.52,West,261,327.0,327.0,82,-99.99,,,-99.99,,2013-03-04 10:52:00,
2013-03-04 06:02:00,25.0,20.0,29.52,NW,304,1.0,4.0,82,0.00,,,0.12,,2013-03-04 11:02:00,
2013-03-04 06:11:00,25.0,20.0,29.52,NW,304,1.0,4.0,82,0.00,,,0.12,,2013-03-04 11:11:00,
2013-03-04 06:22:00,26.0,21.0,29.52,West,279,1.0,6.0,82,0.00,,,0.12,,2013-03-04 11:22:00,
2013-03-04 06:32:00,26.0,21.0,29.52,WNW,302,1.0,4.0,82,0.00,,,0.12,,2013-03-04 11:32:00,
2013-03-04 06:42:00,26.0,21.0,29.52,WNW,302,1.0,4.0,82,0.00,,,0.12,,2013-03-04 11:42:00,
2013-03-04 06:52:00,26.0,21.0,29.52,WSW,238,1.0,3.0,82,0.00,,,0.12,,2013-03-04 11:52:00,
2013-03-04 07:01:00,26.0,21.0,29.52,WSW,238,1.0,3.0,82,0.00,,,0.12,,2013-03-04 12:01:00,
2013-03-04 07:11:00,26.0,21.0,29.52,WSW,238,1.0,3.0,82,0.00,,,0.12,,2013-03-04 12:11:00,
2013-03-04 07:22:00,27.0,22.0,29.52,SSW,192,2.0,6.0,80,0.00,,,0.12,,2013-03-04 12:22:00,
2013-03-04 07:32:00,27.0,21.0,29.52,SW,232,327.0,327.0,79,-99.99,,,-99.99,,2013-03-04 12:32:00,
2013-03-04 07:43:00,27.0,21.0,29.52,SW,232,327.0,327.0,79,-99.99,,,-99.99,,2013-03-04 12:43:00,
2013-03-04 07:53:00,28.0,22.0,29.52,SSW,205,327.0,327.0,79,-99.99,,,-99.99,,2013-03-04 12:53:00,
2013-03-04 08:02:00,28.0,22.0,29.52,SW,219,1.0,6.0,78,0.00,,,0.12,,2013-03-04 13:02:00,
2013-03-04 08:11:00,28.0,22.0,29.52,SW,219,1.0,6.0,78,0.00,,,0.12,,2013-03-04 13:11:00,
2013-03-04 08:21:00,29.0,23.0,29.53,West,280,1.0,5.0,77,0.00,,,0.12,,2013-03-04 13:21:00,
2013-03-04 08:32:00,29.0,22.0,29.52,WSW,245,327.0,327.0,75,-99.99,,,-99.99,,2013-03-04 13:32:00,
2013-03-04 08:42:00,29.0,22.0,29.52,WSW,245,327.0,327.0,75,-99.99,,,-99.99,,2013-03-04 13:42:00,
2013-03-04 08:52:00,29.0,22.0,29.52,WSW,245,327.0,327.0,75,-99.99,,,-99.99,,2013-03-04 13:52:00,
2013-03-04 09:01:00,30.0,23.0,29.53,SW,231,3.0,5.0,75,0.00,,,0.12,,2013-03-04 14:01:00,
2013-03-04 09:11:00,30.0,23.0,29.53,SW,231,3.0,5.0,75,0.00,,,0.12,,2013-03-04 14:11:00,
2013-03-04 09:22:00,30.0,23.0,29.53,SW,218,327.0,327.0,76,-99.99,,,-99.99,,2013-03-04 14:22:00,
2013-03-04 09:32:00,31.0,23.0,29.53,WSW,246,0.0,5.0,73,0.00,,,0.12,,2013-03-04 14:32:00,
2013-03-04 09:42:00,31.0,23.0,29.53,WSW,246,0.0,5.0,73,0.00,,,0.12,,2013-03-04 14:42:00,
2013-03-04 09:52:00,31.0,23.0,29.53,West,271,3.0,6.0,72,0.00,,,0.12,,2013-03-04 14:52:00,
2013-03-04 10:02:00,31.0,23.0,29.53,WSW,246,2.0,9.0,72,0.00,,,0.12,,2013-03-04 15:02:00,
2013-03-04 10:11:00,31.0,23.0,29.53,WSW,246,2.0,9.0,72,0.00,,,0.12,,2013-03-04 15:11:00,
2013-03-04 10:22:00,32.0,24.0,29.52,South,190,2.0,8.0,71,0.00,,,0.12,,2013-03-04 15:22:00,
2013-03-04 10:32:00,32.0,24.0,29.52,SW,226,327.0,327.0,71,-99.99,,,-99.99,,2013-03-04 15:32:00,
2013-03-04 10:42:00,32.0,24.0,29.52,SW,226,327.0,327.0,71,-99.99,,,-99.99,,2013-03-04 15:42:00,
2013-03-04 10:52:00,33.0,24.0,29.52,WSW,246,2.0,6.0,69,0.00,,,0.07,,2013-03-04 15:52:00,
2013-03-04 11:03:00,33.0,24.0,29.52,WSW,250,4.0,9.0,70,0.00,,,0.07,,2013-03-04 16:03:00,
2013-03-04 11:11:00,33.0,24.0,29.52,WSW,250,4.0,9.0,70,0.00,,,0.07,,2013-03-04 16:11:00,
2013-03-04 11:21:00,32.0,23.0,29.52,SW,227,3.0,10.0,70,0.00,,,0.07,,2013-03-04 16:21:00,
2013-03-04 11:32:00,34.0,23.0,29.51,West,269,3.0,8.0,65,0.00,,,0.07,,2013-03-04 16:32:00,
2013-03-04 11:42:00,34.0,23.0,29.51,West,269,3.0,8.0,65,0.00,,,0.07,,2013-03-04 16:42:00,
2013-03-04 11:52:00,35.0,23.0,29.51,SSW,211,4.0,12.0,62,0.00,,,0.07,,2013-03-04 16:52:00,
2013-03-04 12:02:00,35.0,23.0,29.51,West,280,4.0,9.0,62,0.00,,,0.01,,2013-03-04 17:02:00,
2013-03-04 12:11:00,35.0,23.0,29.51,West,280,4.0,9.0,62,0.00,,,0.01,,2013-03-04 17:11:00,
2013-03-04 12:22:00,35.0,24.0,29.51,West,275,2.0,6.0,63,0.00,,,0.01,,2013-03-04 17:22:00,
2013-03-04 12:32:00,35.0,24.0,29.50,SW,227,2.0,9.0,63,0.00,,,0.01,,2013-03-04 17:32:00,
2013-03-04 12:42:00,35.0,24.0,29.50,SW,227,2.0,9.0,63,0.00,,,0.01,,2013-03-04 17:42:00,
2013-03-04 12:52:00,35.0,23.0,29.50,West,261,2.0,9.0,62,0.00,,,0.00,,2013-03-04 17:52:00,
2013-03-04 13:01:00,36.0,23.0,29.50,West,275,5.0,8.0,60,0.00,,,0.00,,2013-03-04 18:01:00,
2013-03-04 13:11:00,36.0,23.0,29.50,West,275,5.0,8.0,60,0.00,,,0.00,,2013-03-04 18:11:00,
2013-03-04 13:22:00,37.0,24.0,29.50,WSW,244,2.0,8.0,60,0.00,,,0.00,,2013-03-04 18:22:00,
2013-03-04 13:32:00,36.0,24.0,29.50,East,82,1.0,8.0,61,0.00,,,0.00,,2013-03-04 18:32:00,
2013-03-04 13:42:00,36.0,24.0,29.50,East,82,1.0,8.0,61,0.00,,,0.00,,2013-03-04 18:42:00,
2013-03-04 13:52:00,37.0,26.0,29.51,ENE,69,1.0,9.0,63,0.00,,,0.00,,2013-03-04 18:52:00,
2013-03-04 14:02:00,36.0,25.0,29.51,SW,217,4.0,9.0,63,0.00,,,0.00,,2013-03-04 19:02:00,
2013-03-04 14:12:00,36.0,25.0,29.51,SW,217,4.0,9.0,63,0.00,,,0.00,,2013-03-04 19:12:00,
2013-03-04 14:22:00,35.0,25.0,29.51,NW,313,327.0,327.0,66,-99.99,,,-99.99,,2013-03-04 19:22:00,
2013-03-04 14:32:00,35.0,27.0,29.52,NW,322,5.0,10.0,73,0.01,,,0.01,,2013-03-04 19:32:00,
2013-03-04 14:42:00,35.0,27.0,29.52,NW,322,5.0,10.0,73,0.01,,,0.01,,2013-03-04 19:42:00,
2013-03-04 14:52:00,34.0,27.0,29.52,NNW,338,3.0,8.0,74,0.01,,,0.01,,2013-03-04 19:52:00,
2013-03-04 15:02:00,34.0,26.0,29.53,WSW,248,2.0,8.0,71,0.01,,,0.01,,2013-03-04 20:02:00,
2013-03-04 15:11:00,34.0,25.0,29.53,West,269,3.0,5.0,69,0.00,,,0.01,,2013-03-04 20:11:00,
2013-03-04 15:22:00,34.0,25.0,29.53,West,269,3.0,5.0,69,0.00,,,0.01,,2013-03-04 20:22:00,
2013-03-04 15:32:00,35.0,25.0,29.53,West,267,1.0,8.0,66,0.00,,,0.01,,2013-03-04 20:32:00,
2013-03-04 15:42:00,35.0,25.0,29.53,West,267,1.0,8.0,66,0.00,,,0.01,,2013-03-04 20:42:00,
2013-03-04 15:53:00,34.0,23.0,29.53,WSW,257,3.0,8.0,64,0.00,,,0.01,,2013-03-04 20:53:00,
2013-03-04 16:02:00,34.0,23.0,29.53,WSW,256,1.0,7.0,65,0.00,,,0.01,,2013-03-04 21:02:00,
2013-03-04 16:12:00,34.0,23.0,29.53,WSW,256,1.0,7.0,65,0.00,,,0.01,,2013-03-04 21:12:00,
2013-03-04 16:22:00,34.0,24.0,29.54,WSW,241,1.0,5.0,66,0.00,,,0.01,,2013-03-04 21:22:00,
2013-03-04 16:32:00,33.0,23.0,29.54,ENE,78,2.0,11.0,65,0.00,,,0.01,,2013-03-04 21:32:00,
2013-03-04 16:42:00,33.0,23.0,29.54,ENE,78,2.0,11.0,65,0.00,,,0.01,,2013-03-04 21:42:00,
2013-03-04 16:52:00,33.0,23.0,29.56,West,272,4.0,10.0,65,0.00,,,0.01,,2013-03-04 21:52:00,
2013-03-04 17:02:00,33.0,23.0,29.56,West,277,3.0,11.0,67,0.00,,,0.01,,2013-03-04 22:02:00,
2013-03-04 17:12:00,33.0,23.0,29.56,West,277,3.0,11.0,67,0.00,,,0.01,,2013-03-04 22:12:00,
2013-03-04 17:22:00,32.0,22.0,29.57,NW,306,327.0,327.0,66,-99.99,,,-99.99,,2013-03-04 22:22:00,
2013-03-04 17:32:00,32.0,22.0,29.58,West,263,3.0,7.0,66,0.00,,,0.01,,2013-03-04 22:32:00,
2013-03-04 17:42:00,32.0,22.0,29.58,West,263,3.0,7.0,66,0.00,,,0.01,,2013-03-04 22:42:00,
2013-03-04 17:52:00,32.0,23.0,29.58,SW,217,1.0,3.0,68,0.00,,,0.01,,2013-03-04 22:52:00,
2013-03-04 18:02:00,32.0,23.0,29.58,South,186,2.0,6.0,69,0.00,,,0.01,,2013-03-04 23:02:00,
2013-03-04 18:11:00,32.0,23.0,29.58,South,186,2.0,6.0,69,0.00,,,0.01,,2013-03-04 23:11:00,
2013-03-04 18:22:00,31.0,23.0,29.59,SSW,195,2.0,4.0,72,0.00,,,0.01,,2013-03-04 23:22:00,
2013-03-04 18:32:00,32.0,23.0,29.60,West,261,2.0,6.0,69,0.00,,,0.01,,2013-03-04 23:32:00,
2013-03-04 18:42:00,32.0,23.0,29.60,West,261,2.0,6.0,69,0.00,,,0.01,,2013-03-04 23:42:00,
2013-03-04 18:52:00,31.0,22.0,29.61,WSW,241,1.0,5.0,70,0.00,,,0.01,,2013-03-04 23:52:00,
2013-03-04 19:02:00,29.0,21.0,29.62,WSW,238,2.0,4.0,73,0.00,,,0.01,,2013-03-05 00:02:00,
2013-03-04 19:12:00,29.0,21.0,29.62,WSW,238,2.0,4.0,73,0.00,,,0.01,,2013-03-05 00:12:00,
2013-03-04 19:22:00,29.0,22.0,29.62,SSW,211,1.0,3.0,76,0.00,,,0.01,,2013-03-05 00:22:00,
2013-03-04 19:32:00,29.0,22.0,29.62,WSW,257,1.0,4.0,76,0.00,,,0.01,,2013-03-05 00:32:00,
2013-03-04 19:42:00,29.0,22.0,29.62,WSW,257,1.0,4.0,76,0.00,,,0.01,,2013-03-05 00:42:00,
2013-03-04 19:52:00,29.0,23.0,29.63,NNW,344,1.0,3.0,77,0.00,,,0.01,,2013-03-05 00:52:00,
2013-03-04 20:01:00,31.0,24.0,29.64,West,264,1.0,7.0,74,0.00,,,0.01,,2013-03-05 01:01:00,
2013-03-04 20:12:00,31.0,24.0,29.64,West,264,1.0,7.0,74,0.00,,,0.01,,2013-03-05 01:12:00,
2013-03-04 20:22:00,32.0,24.0,29.64,WSW,243,1.0,6.0,72,0.00,,,0.01,,2013-03-05 01:22:00,
2013-03-04 20:32:00,31.0,24.0,29.65,NNE,30,1.0,5.0,74,0.00,,,0.01,,2013-03-05 01:32:00,
2013-03-04 20:42:00,31.0,24.0,29.65,NNE,30,1.0,5.0,74,0.00,,,0.01,,2013-03-05 01:42:00,
2013-03-04 20:52:00,31.0,24.0,29.65,South,173,1.0,5.0,74,0.00,,,0.01,,2013-03-05 01:52:00,
2013-03-04 21:01:00,31.0,24.0,29.65,West,259,1.0,6.0,74,0.00,,,0.01,,2013-03-05 02:01:00,
2013-03-04 21:11:00,31.0,24.0,29.65,West,259,1.0,6.0,74,0.00,,,0.01,,2013-03-05 02:11:00,
2013-03-04 21:22:00,31.0,24.0,29.66,ESE,113,327.0,327.0,74,-99.99,,,-99.99,,2013-03-05 02:22:00,
2013-03-04 21:32:00,31.0,23.0,29.67,West,273,327.0,327.0,72,-99.99,,,-99.99,,2013-03-05 02:32:00,
2013-03-04 21:42:00,31.0,23.0,29.67,West,273,327.0,327.0,72,-99.99,,,-99.99,,2013-03-05 02:42:00,
2013-03-04 21:52:00,31.0,23.0,29.67,West,271,327.0,327.0,73,-99.99,,,-99.99,,2013-03-05 02:52:00,
2013-03-04 22:02:00,31.0,23.0,29.68,WSW,253,1.0,4.0,73,0.00,,,0.01,,2013-03-05 03:02:00,
2013-03-04 22:12:00,31.0,25.0,29.68,SE,142,0.0,1.0,78,0.00,,,0.01,,2013-03-05 03:12:00,
2013-03-04 22:22:00,31.0,25.0,29.68,SE,142,0.0,1.0,78,0.00,,,0.01,,2013-03-05 03:22:00,
2013-03-04 22:32:00,30.0,24.0,29.68,SE,142,0.0,1.0,77,0.00,,,0.01,,2013-03-05 03:32:00,
2013-03-04 22:42:00,30.0,24.0,29.68,SE,142,0.0,1.0,77,0.00,,,0.01,,2013-03-05 03:42:00,
2013-03-04 22:52:00,30.0,24.0,29.68,WNW,298,0.0,3.0,78,0.00,,,0.01,,2013-03-05 03:52:00,
2013-03-04 23:02:00,29.0,23.0,29.69,SE,141,1.0,5.0,79,0.00,,,0.01,,2013-03-05 04:02:00,
2013-03-04 23:12:00,29.0,23.0,29.69,SE,141,1.0,5.0,79,0.00,,,0.01,,2013-03-05 04:12:00,
2013-03-04 23:22:00,29.0,24.0,29.69,ESE,123,327.0,327.0,80,-99.99,,,-99.99,,2013-03-05 04:22:00,
2013-03-04 23:32:00,28.0,24.0,29.69,ESE,123,0.0,0.0,83,0.00,,,0.01,,2013-03-05 04:32:00,
2013-03-04 23:42:00,28.0,24.0,29.69,ESE,123,0.0,0.0,83,0.00,,,0.01,,2013-03-05 04:42:00,
2013-03-04 23:52:00,28.0,23.0,29.70,WSW,238,1.0,2.0,81,0.00,,,0.01,,2013-03-05 04:52:00,